Location: Saratoga Springs
(43.0831°N, 73.7850°W)
Time: 12:34:31
(UTC-04:00)

Vanguard 1 Rocket - Pass Details

Date: 17 April 2024
Orbit: 651 x 4220 km, 34.3° (Epoch: 19 May)

Event Time Altitude Azimuth Distance (km) Brightness Sun altitude
Exits shadow 03:00:43 18° 175° (S) 6,119 11.1 -29.0°
Drops below altitude 10° 03:06:53 10° 163° (SSE) 7,140 11.6 -28.4°
Sets 03:14:33 0° 154° (SSE) 8,406 12.1 -27.5°
